Regional Weather Roundup
Issued by NWS

Home | Current Version | Previous Version | Text Only | Print | Product List | Glossary On
Versions: 1 2 3 4 5 6 7 8 9 10 11 12 13 14 15 16 17 18 19 20 21 22 23 24 25 26 27
000
ASUS42 KKEY 010010
RWRKEY

FLORIDA REGIONAL WEATHER ROUNDUP FOR THE FLORIDA KEYS
NATIONAL WEATHER SERVICE KEY WEST FLORIDA
800 PM EDT TUE MAY 31 2016

...SOUTH FLORIDA AND THE KEYS...

CITY           SKY/WX    TMP DP  RH WIND       PRES   REMARKS
FORT MYERS     CLOUDY    82  70  66 CALM      29.91R
SW REGIONAL AP PTCLDY    81  72  74 SE5       29.92R
NAPLES         CLEAR     82  66  58 E5        29.91R
MIAMI          MOCLDY    81  70  69 E7        29.92S
WEST KENDALL   PTCLDY    78  72  81 E6        29.92S
HOMESTEAD      PTCLDY    79  73  82 NE3       29.92S
MARATHON       PTCLDY    83  69  62 E8        29.91R
BOCA CHICA NAS PTCLDY    82  71  69 E13       29.91R
KEY WEST INTL  CLEAR     83  72  69 E9        29.91R

...INTERNATIONAL WEATHER...

CITY           SKY/WX    TMP DP  RH WIND       PRES   REMARKS
NASSAU BAHAMAS PTCLDY    81  75  83 NE5       29.96R
CANCUN MEXICO  MOCLDY    84  75  74 E8        29.86S HX  92
COZUMEL MEXICO MOCLDY    81  73  78 E10       29.86R

ADJACENT COASTAL WATERS...

STATION/POSITION TIME  SKY/WX   TEMP    WIND        PRES    WAVE
                                AIR SEA DIR/SP/G            HT/PER
                 (UTC)          (F)     (DEG/KT/KT) (MB)    (FT/S)
PULASKI SHOAL LI 0000            82      90/  8/  9 1013.0R
SAND KEY         2350            82     120/ 13/ 16 1013.2R
SOMBRERO KEY     NOT AVBL
LONG KEY         0000            82 89  100/ 12/ 14 1013.3R
MOLASSES REEF    2300            81 83   60/  9     1013.2R
FOWEY ROCKS      0000            81 83   80/  9/ 10 1013.9R

$$




USA.gov is the U.S. government's official web portal to all federal, state and local government web resources and services.